FW1418 Weather Reports


Display with metric or nautical units.
time (UTC)temp
F
wind
direction
speed
MPH
gust
MPH
rain 1hr
in
rain 24hr
in
rain mn
in
humidity
%
barometer
mb
20260904030036 65 351 1.0 3.0 0.00 0.10 0.10 99 1015.0
20260904024545 65 351 0.0 3.0 0.00 0.10 0.10 99 1015.0
20260904023035 65 351 1.0 3.0 0.00 0.10 0.10 99 1014.8
20260904021537 66 351 1.0 2.0 0.00 0.10 0.10 99 1014.8
20260904020036 66 351 1.0 2.0 0.00 0.10 0.10 99 1014.7
20260904014541 66 351 0.0 3.0 0.00 0.10 0.10 98 1014.9
20260904013039 66 351 2.0 4.0 0.00 0.10 0.10 98 1014.9
20260904011538 67 42 2.0 4.0 0.00 0.10 0.10 98 1014.7
20260904010039 67 42 2.0 3.0 0.00 0.10 0.10 97 1014.6
20260904004532 68 87 2.0 4.0 0.00 0.10 0.10 97 1014.4
20260904003034 68 135 1.0 3.0 0.00 0.10 0.10 97 1014.3
20260904001534 69 151 2.0 3.0 0.00 0.10 0.10 96 1014.2
20260904000031 69 157 1.0 3.0 0.00 0.10 0.10 95 1014.0
20260903234530 70 157 1.0 2.0 0.00 0.10 0.10 93 1013.7
20260903233030 71 157 0.0 1.0 0.00 0.10 0.10 92 1013.9
20260903231534 72 157 0.0 1.0 0.00 0.10 0.10 90 1013.8
20260903230035 73 157 0.0 0.0 0.00 0.10 0.10 90 1013.9
20260903224548 73 157 0.0 2.0 0.00 0.10 0.10 87 1013.8
20260903223029 74 157 0.0 2.0 0.00 0.10 0.10 88 1013.6
20260903221533 75 157 0.0 1.0 0.00 0.10 0.10 86 1013.4
20260903220026 75 157 0.0 2.0 0.00 0.10 0.10 83 1013.2
20260903214536 74 157 0.0 3.0 0.00 0.10 0.10 83 1013.1
20260903213028 73 121 0.0 2.0 0.00 0.10 0.10 85 1013.0
20260903211518 72 119 2.0 4.0 0.00 0.10 0.10 86 1012.9
20260903210018 71 122 1.0 3.0 0.00 0.10 0.10 87 1012.8
20260903204517 70 92 4.0 8.0 0.00 0.10 0.10 90 1012.6
20260903191514 69 108 2.0 6.0 0.07 0.10 0.10 95 1014.3
20260903190012 69 126 2.0 4.0 0.10 0.10 0.10 96 1014.7
20260903184510 68 121 0.0 2.0 0.10 0.10 0.10 97 1015.2
20260903183010 68 121 1.0 3.0 0.10 0.10 0.10 96 1015.6
20260903181509 69 355 0.0 3.0 0.02 0.02 0.02 92 1015.8
20260903180008 69 355 0.0 2.0 0.00 0.00 0.00 90 1015.7
20260903174508 69 280 1.0 7.0 0.00 0.00 0.00 89 1016.5
20260903173006 70 250 2.0 11.0 0.00 0.00 0.00 86 1015.7
20260903171502 71 344 2.0 4.0 0.00 0.00 0.00 84 1015.3
20260903170001 72 95 1.0 3.0 0.00 0.00 0.00 83 1014.6
20260903164611 72 95 1.0 6.0 0.00 0.00 0.00 83 1014.3
20260903163059 71 141 2.0 8.0 0.00 0.00 0.00 85 1014.2
20260903161556 71 130 4.0 8.0 0.00 0.00 0.00 86 1014.0
20260903160108 71 142 2.0 5.0 0.00 0.00 0.00 85 1014.6
20260903154607 71 111 1.0 4.0 0.00 0.00 0.00 86 1014.2
20260903153054 71 150 2.0 10.0 0.00 0.00 0.00 85 1013.8
20260903151552 70 103 3.0 8.0 0.00 0.00 0.00 85 1014.0
20260903150050 70 111 3.0 9.0 0.00 0.00 0.00 86 1014.0
20260903144554 70 110 2.0 7.0 0.00 0.00 0.00 86 1014.1
20260903143103 69 112 3.0 7.0 0.00 0.00 0.00 87 1014.1
20260903141600 70 130 1.0 4.0 0.00 0.00 0.00 87 1014.3
20260903140048 70 128 2.0 5.0 0.00 0.01 0.00 86 1014.3
20260903134552 70 123 2.0 4.0 0.00 0.01 0.00 86 1014.3
20260903133046 70 95 3.0 7.0 0.00 0.01 0.00 86 1014.4
20260903131546 69 131 2.0 10.0 0.00 0.01 0.00 88 1014.4
20260903130041 68 140 3.0 6.0 0.00 0.10 0.00 93 1014.7
20260903124542 67 114 1.0 3.0 0.00 0.10 0.00 98 1014.5
20260903123038 66 114 1.0 3.0 0.00 0.10 0.00 100 1014.5
20260903121531 64 114 0.0 0.0 0.00 0.10 0.00 100 1014.6
20260903120030 64 114 0.0 0.0 0.00 0.10 0.00 100 1014.6
20260903114530 64 114 0.0 0.0 0.00 0.10 0.00 100 1014.5
20260903113030 63 114 0.0 0.0 0.00 0.10 0.00 100 1014.4
20260903111538 63 114 0.0 0.0 0.00 0.10 0.00 100 1014.6
20260903110027 62 114 0.0 0.0 0.00 0.10 0.00 100 1014.5
20260903104527 62 114 0.0 0.0 0.00 0.10 0.00 100 1014.5
20260903103028 62 114 0.0 0.0 0.00 0.10 0.00 100 1014.3
20260903101535 62 114 0.0 0.0 0.00 0.10 0.00 100 1014.2
20260903100021 62 114 0.0 0.0 0.00 0.10 0.00 100 1014.2
20260903094521 62 114 1.0 2.0 0.00 0.10 0.00 100 1014.0
20260903093020 62 114 0.0 0.0 0.00 0.10 0.00 99 1014.0
20260903091518 62 114 0.0 2.0 0.00 0.10 0.00 99 1013.9
20260903090018 61 114 1.0 2.0 0.00 0.10 0.00 99 1013.9
20260903084517 61 114 1.0 2.0 0.00 0.10 0.00 99 1013.7
20260903083030 61 114 1.0 2.0 0.00 0.10 0.00 99 1013.7
20260903081527 61 114 2.0 3.0 0.00 0.10 0.00 99 1013.8
20260903080013 61 114 1.0 2.0 0.00 0.10 0.00 99 1013.7
20260903074512 61 114 0.0 0.0 0.00 0.10 0.00 99 1013.5
20260903073014 62 114 0.0 2.0 0.00 0.10 0.00 98 1013.5
20260903071510 62 114 1.0 2.0 0.00 0.10 0.00 98 1013.5
20260903070009 62 114 1.0 3.0 0.00 0.10 0.00 99 1013.4
20260903064509 62 114 1.0 3.0 0.00 0.10 0.00 99 1013.5
20260903063007 62 114 1.0 2.0 0.00 0.10 0.00 99 1013.4
20260903061506 62 114 1.0 3.0 0.00 0.10 0.00 99 1013.4
20260903060006 62 114 1.0 2.0 0.00 0.10 0.00 99 1013.4
20260903054504 62 114 1.0 3.0 0.00 0.10 0.00 99 1013.6
20260903053003 62 114 1.0 3.0 0.00 0.10 0.00 99 1013.6
20260903051501 63 114 1.0 3.0 0.00 0.10 0.00 99 1013.6
20260903050127 63 114 0.0 3.0 0.00 0.10 0.00 99 1013.5
20260903044558 63 114 0.0 2.0 0.00 0.10 0.00 99 1013.4
20260903043055 64 114 0.0 2.0 0.00 0.10 0.00 99 1013.5
20260903041555 64 114 1.0 2.0 0.00 0.10 0.00 99 1013.3
20260903040058 65 114 1.0 3.0 0.00 0.10 0.10 99 1013.2
20260903034551 65 114 1.0 3.0 0.00 0.10 0.10 99 1013.2
20260903033049 65 115 1.0 4.0 0.00 0.10 0.10 99 1013.0
20260903031548 65 115 1.0 3.0 0.00 0.10 0.10 99 1012.9